Weather History for Tuscaloosa, AL

Change the Weather History Date:

Tuesday, March 18, 2014

  Actual Average Record
Temperature  
Mean Temperature 49 °F 57 °F  
Max Temperature 58 °F 69 °F 85 °F (1953)
Min Temperature 40 °F 44 °F 29 °F (1967)
Degree Days  
Heating Degree Days 16 9  
Month to date heating degree days 206 194  
Since 1 July heating degree days 2523 2284  
Moisture  
Dew Point 40 °F    
Average Humidity 71    
Maximum Humidity 85    
Minimum Humidity 57    
Precipitation  
Precipitation 0.00 in 0.13 in 1.40 in (1951)
Month to date precipitation 2.23 2.74  
Year to date precipitation 9.95 13.41  
Sea Level Pressure  
Sea Level Pressure 29.93 in    
Wind  
Wind Speed 5 mph (South)    
Max Wind Speed 13 mph    
Max Gust Speed 18 mph    
Visibility 8 miles    
Events      
T = Trace of Precipitation, MM = Missing Value Source: NWS Daily Summary

Daily Weather History Graph

Daily Weather History Graph

Search for Another Location

Airport:

Trip Planner

Search our weather history database for the weather conditions in past years. The results will help you decide how hot, cold, wet, or windy it might be!

Date:

Astronomy

Mar. 18, 2014 Rise Set
Actual Time 6:56 AM CDT 7:00 PM CDT
Civil Twilight 6:32 AM CDT 7:25 PM CDT
Nautical Twilight 6:03 AM CDT 7:54 PM CDT
Astronomical Twilight 5:34 AM CDT 8:23 PM CDT
Moon 9:09 PM CDT (3/18) 7:52 AM CDT (3/18)
Length of Visible Light 12h 53m
Length of Day
12h 03m
Waning Gibbous, 96% of the Moon is Illuminated
Mar 18
Waning Gibbous
Mar 23
Last Quarter
Mar 30
New
Apr 7
First Quarter
Apr 15
Full

Hourly Weather History & Observations

Time (CDT) Temp. Windchill Dew Point Humidity Pressure Visibility Wind Dir Wind Speed Gust Speed Precip Events Conditions
12:38 AM 42.8 °F 39.3 °F 37.4 °F 81% 29.87 in 7.0 mi NW 5.8 mph - N/A   Overcast
12:53 AM 42.1 °F 39.2 °F 37.0 °F 82% 29.86 in 8.0 mi NNW 4.6 mph - N/A   Overcast
1:53 AM 39.9 °F 36.7 °F 36.0 °F 86% 29.84 in 8.0 mi NNW 4.6 mph - N/A   Overcast
2:53 AM 42.1 °F - 37.0 °F 82% 29.84 in 8.0 mi Calm Calm - N/A   Overcast
3:53 AM 42.1 °F - 37.0 °F 82% 29.84 in 8.0 mi Calm Calm - N/A   Overcast
4:53 AM 42.1 °F 40.2 °F 37.0 °F 82% 29.86 in 7.0 mi West 3.5 mph - N/A   Overcast
5:53 AM 42.1 °F - 37.0 °F 82% 29.86 in 7.0 mi Calm Calm - N/A   Overcast
6:23 AM 42.8 °F - 37.4 °F 81% 29.87 in 7.0 mi Calm Calm - N/A   Overcast
6:53 AM 42.1 °F - 37.9 °F 85% 29.89 in 7.0 mi Calm Calm - N/A   Overcast
7:36 AM 42.8 °F 39.3 °F 37.4 °F 81% 29.93 in 5.0 mi WSW 5.8 mph - N/A   Overcast
7:53 AM 43.0 °F 39.5 °F 37.9 °F 82% 29.94 in 6.0 mi WSW 5.8 mph - N/A   Haze
8:33 AM 42.8 °F 40.1 °F 37.4 °F 81% 29.96 in 6.0 mi West 4.6 mph - N/A   Haze
8:53 AM 43.0 °F 39.5 °F 37.9 °F 82% 29.99 in 6.0 mi SSW 5.8 mph - N/A   Haze
9:53 AM 44.1 °F 41.5 °F 39.0 °F 82% 30.00 in 7.0 mi Variable 4.6 mph - N/A   Overcast
10:32 AM 46.4 °F 43.5 °F 39.2 °F 76% 30.00 in 9.0 mi SSW 5.8 mph - N/A   Overcast
10:53 AM 46.9 °F - 39.0 °F 74% 30.01 in 9.0 mi SW 4.6 mph - N/A   Overcast
11:05 AM 46.4 °F 44.3 °F 39.2 °F 76% 30.00 in 9.0 mi SW 4.6 mph - N/A   Overcast
11:53 AM 48.0 °F - 39.0 °F 71% 30.01 in 9.0 mi South 6.9 mph - N/A   Overcast
12:53 PM 50.0 °F - 39.9 °F 68% 29.99 in 9.0 mi Calm Calm - N/A   Overcast
1:53 PM 52.0 °F - 42.1 °F 69% 29.96 in 10.0 mi Variable 5.8 mph - N/A   Overcast
2:53 PM 53.1 °F - 42.1 °F 66% 29.95 in 10.0 mi SSE 9.2 mph - N/A   Overcast
3:53 PM 55.0 °F - 42.1 °F 62% 29.93 in 10.0 mi ESE 8.1 mph - N/A   Overcast
4:43 PM 55.4 °F - 42.8 °F 63% 29.92 in 10.0 mi ESE 9.2 mph 17.3 mph N/A   Scattered Clouds
4:53 PM 57.0 °F - 43.0 °F 59% 29.91 in 10.0 mi Variable 5.8 mph 18.4 mph N/A   Partly Cloudy
5:53 PM 57.9 °F - 45.0 °F 62% 29.91 in 10.0 mi SE 8.1 mph - N/A   Partly Cloudy
6:53 PM 57.0 °F - 44.1 °F 62% 29.92 in 10.0 mi SE 6.9 mph - N/A   Clear
7:53 PM 55.0 °F - 45.0 °F 69% 29.94 in 10.0 mi SE 9.2 mph - N/A   Clear
8:53 PM 53.1 °F - 45.0 °F 74% 29.97 in 10.0 mi SE 6.9 mph - N/A   Clear
9:53 PM 52.0 °F - 45.0 °F 77% 30.00 in 10.0 mi SE 8.1 mph - N/A   Clear
10:53 PM 51.1 °F - 45.0 °F 80% 30.00 in 10.0 mi ESE 4.6 mph - N/A   Clear
11:53 PM 50.0 °F - 45.0 °F 83% 30.01 in 10.0 mi SSE 4.6 mph - N/A   Clear